This is the latest recevied weather packets stored in our database for station/object KI6PPU. If no packets are shown the sender has not sent any weather packets the latest 10 day(s).
| Time | Temp. | Humidity | Pressure | Rain* | Wind** | Luminosity | Snow |
|---|---|---|---|---|---|---|---|
| 1777572307 | 22.22° C | 55% | 1016.6 hPa | 0 mm | - | 800 W/m² | - |
| 1777572004 | 22.78° C | 59% | 1016.6 hPa | 0 mm | - | 888 W/m² | - |
| 1777571703 | 23.89° C | 59% | 1016.7 hPa | 0 mm | - | 871 W/m² | - |
| 1777571401 | 23.33° C | 57% | 1016.7 hPa | 0 mm | - | 932 W/m² | - |
| 1777571097 | 22.78° C | 58% | 1016.7 hPa | 0 mm | - | 988 W/m² | - |
| 1777570793 | 23.33° C | 57% | 1016.4 hPa | 0 mm | - | 851 W/m² | - |
| 1777570489 | 22.78° C | 54% | 1016.6 hPa | 0 mm | - | 913 W/m² | - |
| 1777570185 | 22.78° C | 56% | 1016.5 hPa | 0 mm | - | 777 W/m² | - |
| 1777569881 | 22.78° C | 55% | 1016.6 hPa | 0 mm | - | 701 W/m² | - |
| 1777569577 | 22.78° C | 56% | 1016.7 hPa | 0 mm | - | 799 W/m² | - |
| 1777569274 | 22.22° C | 58% | 1016.4 hPa | 0 mm | - | 810 W/m² | - |
| 1777568970 | 22.22° C | 55% | 1016.5 hPa | 0 mm | - | 700 W/m² | - |
| 1777568667 | 21.67° C | 54% | 1016.6 hPa | 0 mm | - | 587 W/m² | - |
| 1777568365 | 22.22° C | 57% | 1016.6 hPa | 0 mm | - | 669 W/m² | - |
| 1777568062 | 22.78° C | 54% | 1016.6 hPa | 0 mm | - | 592 W/m² | - |
| 1777567758 | 22.22° C | 60% | 1016.6 hPa | 0 mm | - | 416 W/m² | - |
| 1777567454 | 21.67° C | 58% | 1016.6 hPa | 0 mm | - | 319 W/m² | - |
| 1777567152 | 21.67° C | 56% | 1016.5 hPa | 0 mm | - | 679 W/m² | - |
| 1777566850 | 21.11° C | 57% | 1016.8 hPa | 0 mm | - | 613 W/m² | - |
| 1777566548 | 20.56° C | 58% | 1016.7 hPa | 0 mm | - | 576 W/m² | - |
| 1777566245 | 20.56° C | 61% | 1016.7 hPa | 0 mm | - | 642 W/m² | - |
| 1777565942 | 20° C | 63% | 1016.8 hPa | 0 mm | - | 574 W/m² | - |
| 1777565637 | 20° C | 59% | 1016.8 hPa | 0 mm | - | 526 W/m² | - |
| 1777565334 | 20° C | 64% | 1016.6 hPa | 0 mm | - | 431 W/m² | - |
| 1777565030 | 19.44° C | 65% | 1016.7 hPa | 0 mm | - | 464 W/m² | - |
* Rain latest hour (hover to see other rain measurements)
** Current wind speed in m/s (hover to see current wind gust speed)